sat.trackr.live / text

‹ back to catalog

2024-205J

NORAD 61902 · 2024-205J

PAYLOAD ACTIVE UNKNOWN

§ Identity

Operator
Country
PRC
Launch date
2024-11-11
Launch site
JSC
Launch vehicle
Mass (kg)
RCS (m²)

External: N2YO · Heavens-Above · Gunter

§ Orbital elements

Epoch: 2026-05-25T04:27:56.478240Z

Period
95.25 min
Inclination
97.4145°
Eccentricity
0.0011881
Mean motion
15.11768082 rev/d
Perigee alt
522.6 km
Apogee alt
539.0 km
Semi-major
6,908.9 km
B*
3.5186e-4
RAAN
216.2403°
Arg perigee
243.9902°
Mean anomaly
116.0106°
Rev number
8,471

§ Raw data

2024-205J1 61902U 24205J   26145.18607035  .00005950  00000+0  35186-3 0  99932 61902  97.4145 216.2403 0011881 243.9902 116.0106 15.11768082 84710

JSON: /api/v1/satellites/61902 · /tle

For live sub-satellite position, see the globe view (requires WebGL).

§ Visibility from observer

Set your observer location to see the next 7 days of passes ≥ 10°. The values pass through the URL so the page stays shareable.

No JS? Fill the form by hand. The geolocation button needs JavaScript.